Weather History for Papa, Hungary

Change the Weather History Date:

Tuesday, January 8, 2013

  Actual Average Record
Temperature  
Mean Temperature 26 °F -  
Max Temperature 32 °F - - ()
Min Temperature 21 °F - - ()
Degree Days  
Heating Degree Days 38    
Moisture  
Dew Point 27 °F    
Average Humidity 97    
Maximum Humidity 100    
Minimum Humidity 80    
Precipitation  
Precipitation 0.00 in - - ()
Sea Level Pressure  
Sea Level Pressure 30.30 in    
Wind  
Wind Speed 4 mph ()    
Max Wind Speed 9 mph    
Max Gust Speed -    
Visibility 2.7 miles    
Events Rain , Snow    
T = Trace of Precipitation, MM = Missing Value Source: Averaged Metar Reports

Daily Weather History Graph

Daily Weather History Graph

Search for Another Location

Airport:

Trip Planner

Search our weather history database for the weather conditions in past years. The results will help you decide how hot, cold, wet, or windy it might be!

Date:

Astronomy

Jan. 08, 2013 Rise Set
Actual Time 7:36 AM CET 4:17 PM CET
Civil Twilight 7:00 AM CET 4:52 PM CET
Nautical Twilight 6:22 AM CET 5:31 PM CET
Astronomical Twilight 5:45 AM CET 6:08 PM CET
Moon 3:46 AM CET (1/8) 1:05 PM CET (1/8)
Length of Visible Light 9h 51m
Length of Day
8h 41m
Waning Crescent, 16% of the Moon is Illuminated
Jan 8
Waning Crescent
Jan 11
New
Jan 19
First Quarter
Jan 27
Full
Feb 3
Last Quarter

Hourly Weather History & Observations

Time (CET) Temp. Windchill Dew Point Humidity Pressure Visibility Wind Dir Wind Speed Gust Speed Precip Events Conditions
12:15 AM 23.0 °F - 23.0 °F 100% 30.39 in 3.7 mi SSE 2.2 mph - N/A   Clear
12:45 AM 21.2 °F - 21.2 °F 100% 30.39 in 3.7 mi SSE 2.2 mph - N/A   Unknown
1:15 AM 21.2 °F - 21.2 °F 100% 30.39 in 3.7 mi SSE 2.2 mph - N/A   Partly Cloudy
1:30 AM 21.2 °F - 21.2 °F 100% 30.39 in 2.5 mi Calm Calm - N/A   Partly Cloudy
1:45 AM 21.2 °F - 21.2 °F 100% 30.39 in 2.5 mi SSE 2.2 mph - N/A   Partly Cloudy
2:15 AM 21.2 °F - 21.2 °F 100% 30.39 in 2.5 mi Calm Calm - N/A   Partly Cloudy
3:15 AM 21.2 °F - 21.2 °F 100% 30.36 in 2.5 mi SE 2.2 mph - N/A   Partly Cloudy
3:45 AM 21.2 °F - 21.2 °F 100% 30.36 in 3.1 mi Calm Calm - N/A   Partly Cloudy
4:15 AM 23.0 °F - 23.0 °F 100% 30.36 in 3.1 mi Calm Calm - N/A   Partly Cloudy
4:45 AM 23.0 °F - 23.0 °F 100% 30.36 in 3.1 mi South 2.2 mph - N/A   Partly Cloudy
5:15 AM 24.8 °F - 24.8 °F 100% 30.36 in 3.1 mi SSW 2.2 mph - N/A   Partly Cloudy
5:45 AM - - - N/A% - 1.9 mi Variable 4.5 mph - N/A   Overcast
6:15 AM 26.6 °F - 26.6 °F 100% 30.36 in 3.1 mi South 2.2 mph - N/A   Partly Cloudy
7:15 AM 26.6 °F - 26.6 °F 100% 30.36 in - Calm Calm - N/A   Clear
7:45 AM 26.6 °F - 26.6 °F 100% 30.36 in - Calm Calm - N/A   Clear
8:15 AM 28.4 °F - 24.8 °F 86% 30.36 in - South 2.2 mph - N/A   Clear
8:45 AM - - - N/A% - 6.2 mi Variable 4.5 mph - N/A   Overcast
9:15 AM 28.4 °F 23.4 °F 24.8 °F 86% 30.36 in 6.2 mi SSW 4.5 mph - N/A   Mostly Cloudy
9:45 AM 30.2 °F 25.5 °F 24.8 °F 80% 30.36 in 6.2 mi SSW 4.5 mph - N/A   Mostly Cloudy
10:15 AM 30.2 °F 25.5 °F 24.8 °F 80% 30.36 in 6.2 mi South 4.5 mph - N/A   Mostly Cloudy
10:45 AM 30.2 °F 25.5 °F 24.8 °F 80% 30.33 in 6.2 mi South 4.5 mph - N/A   Mostly Cloudy
11:15 AM 30.2 °F 25.5 °F 24.8 °F 80% 30.33 in 6.2 mi South 4.5 mph - N/A   Mostly Cloudy
11:45 AM - - - N/A% - 5.0 mi Variable 4.5 mph - N/A   Overcast
11:58 AM 30.2 °F 25.5 °F 26.6 °F 86% 30.33 in 3.1 mi SSW 4.5 mph - N/A Snow Light Snow
12:15 PM 30.2 °F 25.5 °F 26.6 °F 86% 30.33 in 2.5 mi South 4.5 mph - N/A Snow Light Snow
12:45 PM 30.2 °F 25.5 °F 26.6 °F 86% 30.30 in 2.2 mi SSW 4.5 mph - N/A Snow Light Snow
1:14 PM 30.2 °F 23.5 °F 30.2 °F 100% 30.30 in 1.2 mi South 6.7 mph - N/A Snow Light Snow
1:33 PM - - - N/A% - 5.0 mi Variable 4.5 mph - N/A   Overcast
1:45 PM 30.2 °F 23.5 °F 30.2 °F 100% 30.30 in 1.2 mi South 6.7 mph - N/A Snow Light Snow
1:59 PM 30.2 °F 23.5 °F 30.2 °F 100% 30.30 in 0.7 mi South 6.7 mph - N/A Snow Light Snow
2:15 PM 30.2 °F 23.5 °F 30.2 °F 100% 30.27 in 0.7 mi South 6.7 mph - N/A Snow Light Snow
2:45 PM - - - N/A% - 3.1 mi South 6.7 mph - N/A   Unknown
3:15 PM 30.2 °F 23.5 °F 30.2 °F 100% 30.27 in 1.2 mi South 6.7 mph - N/A Snow Light Snow
4:45 PM 30.2 °F 23.5 °F 30.2 °F 100% 30.24 in 0.7 mi South 6.7 mph - N/A Snow Light Snow
5:15 PM 30.2 °F 22.1 °F 30.2 °F 100% 30.24 in 0.7 mi South 8.9 mph - N/A Snow Light Snow
5:30 PM 30.2 °F 22.1 °F 30.2 °F 100% 30.24 in 0.5 mi South 8.9 mph - N/A Snow Snow
5:45 PM - - - N/A% - 1.9 mi South 6.7 mph - N/A   Unknown
6:15 PM 30.2 °F 25.5 °F 30.2 °F 100% 30.24 in 0.5 mi South 4.5 mph - N/A Snow Snow
6:45 PM 30.2 °F 23.5 °F 30.2 °F 100% 30.24 in 0.5 mi South 6.7 mph - N/A Snow Snow
6:58 PM 30.2 °F 23.5 °F 30.2 °F 100% 30.24 in 1.2 mi South 6.7 mph - N/A Snow Light Snow
7:15 PM 30.2 °F 23.5 °F 30.2 °F 100% 30.24 in 1.2 mi South 6.7 mph - N/A Snow Light Snow
7:40 PM 30.2 °F 23.5 °F 30.2 °F 100% 30.24 in 1.9 mi SSW 6.7 mph - N/A Snow Light Snow
7:45 PM 30.2 °F 23.5 °F 30.2 °F 100% 30.24 in 1.9 mi SSW 6.7 mph - N/A Snow Light Snow
8:15 PM 30.2 °F 22.1 °F 30.2 °F 100% 30.24 in 1.9 mi SSW 8.9 mph - N/A Snow Light Snow
8:45 PM - - - N/A% - 3.7 mi WSW 6.7 mph - N/A   Overcast
8:52 PM 30.2 °F 23.5 °F 30.2 °F 100% 30.21 in 3.1 mi SSW 6.7 mph - N/A Snow Light Snow
9:00 PM - - - N/A% - 3.7 mi South 6.7 mph - N/A   Overcast
9:15 PM 32.0 °F 25.7 °F 32.0 °F 100% 30.21 in 3.1 mi South 6.7 mph - N/A Snow Light Snow
9:45 PM 32.0 °F 25.7 °F 32.0 °F 100% 30.21 in 2.5 mi SSW 6.7 mph - N/A Snow Light Snow
10:11 PM 32.0 °F 24.3 °F 32.0 °F 100% 30.21 in 1.9 mi South 8.9 mph - N/A Rain , Snow Light Rain
10:15 PM 32.0 °F 25.7 °F 32.0 °F 100% 30.21 in 1.9 mi SSW 6.7 mph - N/A Rain , Snow Light Rain
10:45 PM 32.0 °F 25.7 °F 32.0 °F 100% 30.21 in 1.2 mi SSW 6.7 mph - N/A Rain , Snow Light Rain
11:15 PM 32.0 °F 25.7 °F 32.0 °F 100% 30.21 in 1.2 mi SSW 6.7 mph - N/A Rain , Snow Light Rain
11:45 PM - - - N/A% - 3.1 mi North - - N/A   Overcast
11:51 PM 32.0 °F 24.3 °F 32.0 °F 100% 30.18 in 1.2 mi SW 8.9 mph - N/A   Overcast